sat.trackr.live / text

‹ back to catalog

STARLINK-5202

NORAD 54761 · 2022-175D

PAYLOAD ACTIVE UNKNOWN

§ Identity

Operator
Country
US
Launch date
2022-12-17
Launch site
AFETR
Launch vehicle
Mass (kg)
RCS (m²)

Purposes: comms

External: N2YO · Heavens-Above · Gunter

§ Orbital elements

Epoch: 2026-05-25T01:12:35.743680Z

Period
95.44 min
Inclination
53.2139°
Eccentricity
0.0001720
Mean motion
15.08843805 rev/d
Perigee alt
538.5 km
Apogee alt
540.9 km
Semi-major
6,917.9 km
B*
-6.1822e-5
RAAN
61.5507°
Arg perigee
88.2838°
Mean anomaly
271.8351°
Rev number
19,144

§ Raw data

STARLINK-52021 54761U 22175D   26145.05041370 -.00001272  00000+0 -61822-4 0  99942 54761  53.2139  61.5507 0001720  88.2838 271.8351 15.08843805191447

JSON: /api/v1/satellites/54761 · /tle

For live sub-satellite position, see the globe view (requires WebGL).

§ Visibility from observer

Set your observer location to see the next 7 days of passes ≥ 10°. The values pass through the URL so the page stays shareable.

No JS? Fill the form by hand. The geolocation button needs JavaScript.